Weather History for Hot Springs, VA

Change the Weather History Date:

Saturday, January 27, 2001

  Actual Average Record
Temperature  
Mean Temperature 26 °F -  
Max Temperature 32 °F 32 °F 62 °F (1999)
Min Temperature 19 °F 18 °F -4 °F (2000)
Degree Days  
Heating Degree Days 40    
Moisture  
Dew Point 24 °F    
Average Humidity 89    
Maximum Humidity 100    
Minimum Humidity 74    
Precipitation  
Precipitation 0.00 in - - ()
Sea Level Pressure  
Sea Level Pressure 29.86 in    
Wind  
Wind Speed 26 mph (WNW)    
Max Wind Speed 37 mph    
Max Gust Speed 52 mph    
Visibility 8 miles    
Events      
Averages and records for this station are not official NWS values.
T = Trace of Precipitation, MM = Missing Value Source: NWS Daily Summary

Daily Weather History Graph

Daily Weather History Graph

Search for Another Location

Airport:

Trip Planner

Search our weather history database for the weather conditions in past years. The results will help you decide how hot, cold, wet, or windy it might be!

Date:

Astronomy

Jan. 27, 2001 Rise Set
Actual Time 7:27 AM EST 5:37 PM EST
Civil Twilight 6:59 AM EST 6:05 PM EST
Nautical Twilight 6:27 AM EST 6:36 PM EST
Astronomical Twilight 5:56 AM EST 7:08 PM EST
Moon 9:24 AM EST (1/27) 8:35 PM EST (1/27)
Length of Visible Light 11h 05m
Length of Day
10h 09m
Waxing Crescent, 9% of the Moon is Illuminated
Jan 27
Waxing Crescent
Feb 1
First Quarter
Feb 8
Full
Feb 14
Last Quarter
Feb 23
New

Hourly Weather History & Observations

Time (EST) Temp. Windchill Dew Point Humidity Pressure Visibility Wind Dir Wind Speed Gust Speed Precip Events Conditions
12:19 AM 32.0 °F 19.8 °F 30.2 °F 93% 29.80 in 10.0 mi West 20.7 mph 29.9 mph N/A   Overcast
12:38 AM 32.0 °F 19.2 °F 30.2 °F 93% 29.80 in 10.0 mi West 23.0 mph 36.8 mph N/A   Overcast
12:58 AM 30.2 °F 16.2 °F 30.2 °F 100% 29.79 in 10.0 mi West 25.3 mph 36.8 mph N/A   Overcast
1:18 AM 30.2 °F 16.2 °F 30.2 °F 100% 29.78 in 7.0 mi West 25.3 mph 33.4 mph N/A   Overcast
1:38 AM 30.2 °F 16.2 °F 30.2 °F 100% 29.77 in 5.0 mi West 25.3 mph 36.8 mph N/A   Overcast
2:00 AM 30.2 °F 17.1 °F 30.2 °F 100% 29.77 in 7.0 mi West 21.9 mph 35.7 mph N/A   Overcast
2:19 AM 30.2 °F 16.8 °F 30.2 °F 100% 29.77 in 10.0 mi West 23.0 mph 35.7 mph N/A   Overcast
2:40 AM 30.2 °F 16.2 °F 30.2 °F 100% 29.76 in 7.0 mi West 25.3 mph 35.7 mph N/A   Overcast
2:58 AM 30.2 °F 16.5 °F 28.4 °F 93% 29.76 in 7.0 mi West 24.2 mph 39.1 mph N/A   Overcast
3:18 AM 30.2 °F 16.2 °F 30.2 °F 100% 29.75 in 10.0 mi WNW 25.3 mph 35.7 mph N/A   Overcast
3:38 AM 30.2 °F 16.2 °F 28.4 °F 93% 29.75 in 7.0 mi West 25.3 mph 32.2 mph N/A   Overcast
3:58 AM 30.2 °F 16.2 °F 30.2 °F 100% 29.75 in 5.0 mi West 25.3 mph 39.1 mph N/A   Overcast
4:18 AM 30.2 °F 15.4 °F 28.4 °F 93% 29.75 in 5.0 mi West 28.8 mph 43.7 mph N/A   Overcast
4:38 AM 30.2 °F 15.9 °F 28.4 °F 93% 29.76 in 4.0 mi WNW 26.5 mph 42.6 mph N/A   Overcast
4:58 AM 30.2 °F 16.8 °F 28.4 °F 93% 29.76 in 7.0 mi West 23.0 mph 38.0 mph N/A   Overcast
5:18 AM 30.2 °F 16.2 °F 28.4 °F 93% 29.77 in 10.0 mi West 25.3 mph 36.8 mph N/A   Overcast
5:38 AM 30.2 °F 15.4 °F 30.2 °F 100% 29.77 in 4.0 mi West 28.8 mph 36.8 mph N/A   Overcast
5:58 AM 30.2 °F 16.8 °F 28.4 °F 93% 29.77 in 0.8 mi West 23.0 mph 39.1 mph N/A   Overcast
6:18 AM 30.2 °F 15.7 °F 28.4 °F 93% 29.77 in 5.0 mi WNW 27.6 mph 39.1 mph N/A   Overcast
6:38 AM 30.2 °F 16.2 °F 28.4 °F 93% 29.77 in 7.0 mi West 25.3 mph 46.0 mph N/A   Overcast
6:58 AM 28.4 °F 13.5 °F 28.4 °F 100% 29.77 in 10.0 mi West 26.5 mph 44.9 mph N/A   Overcast
7:18 AM 28.4 °F 12.7 °F 26.6 °F 93% 29.79 in 7.0 mi West 29.9 mph 42.6 mph N/A   Overcast
7:38 AM 28.4 °F 14.1 °F 26.6 °F 93% 29.79 in 1.5 mi West 24.2 mph 31.1 mph N/A   Overcast
7:58 AM 28.4 °F 14.1 °F 28.4 °F 100% 29.79 in 0.2 mi West 24.2 mph 34.5 mph N/A   Overcast
8:18 AM 28.4 °F 13.8 °F 28.4 °F 100% 29.80 in 0.2 mi West 25.3 mph 39.1 mph N/A   Overcast
8:41 AM 28.4 °F 13.0 °F 26.6 °F 93% 29.81 in 2.5 mi West 28.8 mph 38.0 mph N/A   Overcast
8:58 AM 26.6 °F 10.6 °F 26.6 °F 100% 29.82 in 0.8 mi WNW 28.8 mph 38.0 mph N/A   Overcast
9:18 AM 26.6 °F 11.4 °F 26.6 °F 100% 29.82 in 10.0 mi WNW 25.3 mph 35.7 mph N/A   Overcast
9:38 AM 26.6 °F 11.1 °F 26.6 °F 100% 29.83 in 1.8 mi West 26.5 mph 41.4 mph N/A   Overcast
10:00 AM 26.6 °F 11.4 °F 26.6 °F 100% 29.84 in 0.2 mi WNW 25.3 mph 35.7 mph N/A   Overcast
10:18 AM 26.6 °F 11.1 °F 26.6 °F 100% 29.84 in 0.8 mi WNW 26.5 mph 35.7 mph N/A   Overcast
10:38 AM 26.6 °F 14.7 °F 26.6 °F 100% 29.86 in 2.5 mi WNW 15.0 mph 29.9 mph N/A   Overcast
10:58 AM 26.6 °F 12.0 °F 23.0 °F 86% 29.87 in 7.0 mi NW 23.0 mph 34.5 mph N/A   Overcast
11:18 AM 26.6 °F 9.3 °F 23.0 °F 86% 29.88 in 10.0 mi WNW 34.5 mph 47.2 mph N/A   Overcast
11:38 AM 26.6 °F 10.3 °F 21.2 °F 80% 29.88 in 10.0 mi WNW 29.9 mph 47.2 mph N/A   Mostly Cloudy
11:58 AM 26.6 °F 9.6 °F 21.2 °F 80% 29.88 in 10.0 mi WNW 33.4 mph 50.6 mph N/A   Overcast
12:18 PM 26.6 °F 9.3 °F 21.2 °F 80% 29.89 in 10.0 mi WNW 34.5 mph 44.9 mph N/A   Overcast
12:38 PM 26.6 °F 10.0 °F 21.2 °F 80% 29.89 in 10.0 mi WNW 31.1 mph 42.6 mph N/A   Overcast
12:58 PM 26.6 °F 10.8 °F 19.4 °F 74% 29.90 in 10.0 mi WNW 27.6 mph 42.6 mph N/A   Overcast
1:18 PM 24.8 °F 6.8 °F 19.4 °F 80% 29.90 in 10.0 mi WNW 34.5 mph 41.4 mph N/A   Overcast
1:38 PM 24.8 °F 7.3 °F 17.6 °F 74% 29.91 in 10.0 mi WNW 32.2 mph 51.8 mph N/A   Overcast
1:58 PM 24.8 °F 9.6 °F 17.6 °F 74% 29.92 in 10.0 mi WNW 23.0 mph 41.4 mph N/A   Mostly Cloudy
2:18 PM 24.8 °F 8.4 °F 17.6 °F 74% 29.93 in 10.0 mi WNW 27.6 mph 41.4 mph N/A   Overcast
2:38 PM 24.8 °F 6.4 °F 17.6 °F 74% 29.92 in 10.0 mi WNW 36.8 mph 42.6 mph N/A   Overcast
2:59 PM 24.8 °F 7.6 °F 17.6 °F 74% 29.93 in 10.0 mi WNW 31.1 mph 47.2 mph N/A   Mostly Cloudy
3:18 PM 24.8 °F 7.3 °F 17.6 °F 74% 29.93 in 10.0 mi WNW 32.2 mph 44.9 mph N/A   Mostly Cloudy
3:38 PM 23.0 °F 4.6 °F 15.8 °F 74% 29.93 in 10.0 mi WNW 33.4 mph 46.0 mph N/A   Scattered Clouds
3:58 PM 23.0 °F 5.1 °F 15.8 °F 74% 29.95 in 10.0 mi WNW 31.1 mph 46.0 mph N/A   Scattered Clouds
4:18 PM 23.0 °F 6.6 °F 15.8 °F 74% 29.96 in 10.0 mi WNW 25.3 mph 41.4 mph N/A   Scattered Clouds
4:38 PM 21.2 °F 3.3 °F 15.8 °F 80% 29.98 in 10.0 mi WNW 28.8 mph 38.0 mph N/A   Mostly Cloudy
4:58 PM 21.2 °F 3.0 °F 15.8 °F 80% 29.98 in 10.0 mi WNW 29.9 mph 39.1 mph N/A   Mostly Cloudy
5:18 PM 21.2 °F 3.0 °F 15.8 °F 80% 29.99 in 10.0 mi WNW 29.9 mph 35.7 mph N/A   Mostly Cloudy
5:38 PM 19.4 °F 1.4 °F 15.8 °F 86% 30.00 in 10.0 mi WNW 26.5 mph 38.0 mph N/A   Scattered Clouds
5:58 PM 19.4 °F 1.8 °F 15.8 °F 86% 30.00 in 10.0 mi WNW 25.3 mph 36.8 mph N/A   Scattered Clouds
6:18 PM 19.4 °F 1.1 °F 15.8 °F 86% 30.02 in 10.0 mi WNW 27.6 mph 36.8 mph N/A   Mostly Cloudy
6:38 PM 19.4 °F 2.5 °F 15.8 °F 86% 30.03 in 10.0 mi WNW 23.0 mph 34.5 mph N/A   Mostly Cloudy
6:58 PM 19.4 °F 2.1 °F 14.0 °F 80% 30.04 in 10.0 mi WNW 24.2 mph 34.5 mph N/A   Scattered Clouds
7:18 PM 19.4 °F 0.2 °F 14.0 °F 80% 30.04 in 10.0 mi WNW 31.1 mph 36.8 mph N/A   Clear
7:38 PM 17.6 °F -3.1 °F 14.0 °F 86% 30.04 in 10.0 mi WNW 34.5 mph 39.1 mph N/A   Clear
7:58 PM 17.6 °F -2.8 °F 14.0 °F 86% 30.02 in 10.0 mi WNW 33.4 mph 40.3 mph N/A   Clear
8:18 PM 17.6 °F -1.9 °F 14.0 °F 86% 30.03 in 10.0 mi WNW 29.9 mph 40.3 mph N/A   Clear
8:38 PM 17.6 °F -1.9 °F 14.0 °F 86% 30.03 in 10.0 mi WNW 29.9 mph 36.8 mph N/A   Clear
8:58 PM 17.6 °F -2.2 °F 14.0 °F 86% 30.03 in 10.0 mi WNW 31.1 mph 38.0 mph N/A   Clear
9:18 PM 17.6 °F -1.6 °F 14.0 °F 86% 30.04 in 10.0 mi WNW 28.8 mph 39.1 mph N/A   Clear
9:38 PM 17.6 °F -1.0 °F 14.0 °F 86% 30.05 in 10.0 mi WNW 26.5 mph 36.8 mph N/A   Clear
9:58 PM 17.6 °F -0.6 °F 12.2 °F 79% 30.05 in 10.0 mi WNW 25.3 mph 32.2 mph N/A   Clear
10:18 PM 17.6 °F -0.3 °F 12.2 °F 79% 30.06 in 10.0 mi WNW 24.2 mph 32.2 mph N/A   Clear
10:39 PM 17.6 °F -1.0 °F 12.2 °F 79% 30.05 in 10.0 mi WNW 26.5 mph 34.5 mph N/A   Clear
10:58 PM 17.6 °F -0.3 °F 12.2 °F 79% 30.05 in 10.0 mi WNW 24.2 mph 35.7 mph N/A   Clear
11:18 PM 15.8 °F -1.9 °F 12.2 °F 86% 30.05 in 10.0 mi WNW 21.9 mph 28.8 mph N/A   Clear
11:40 PM 15.8 °F -2.3 °F 12.2 °F 86% 30.05 in 10.0 mi WNW 23.0 mph 28.8 mph N/A   Clear
11:58 PM 15.8 °F -1.9 °F 12.2 °F 86% 30.05 in 10.0 mi WNW 21.9 mph 27.6 mph N/A   Clear